[[{"header":{"parameterUnit":"m.s-1","parameterCategory":1,"la1":30.2991,"la2":30.254,"lo1":-89.0895,"lo2":-89.0444,"dy":0.0017,"dx":0.0017,"nx":28,"ny":28,"refTime":"2024-03-10T21:00:00:Z","depth":0,"parameterNumber":2,"parameterNumberName":"U-component_of_WINDS"},"data":[0,0,0,0,0,0,0,0,0,0,0,0,0,0,0,0,0,0,0,0,0,0,0,0,0,0,0,0,0,0,0,0,0,0,0,0,0,0,0,0,0,0,0,0,0,0,0,0,0,0,0,0,0,0,0,0,0,0,-2.1504,-2.1504,0,-2.1464,-2.1464,-2.1463,-2.1378,-2.1376,-2.1375,-2.1373,-2.1334,-2.1334,-2.1335,0,0,0,0,0,0,0,0,0,0,0,0,0,-2.1511,-2.1511,-2.1504,-2.1504,-2.1503,-2.1464,-2.1464,-2.1463,-2.1378,-2.1376,-2.1374,-2.1372,-2.1334,-2.1334,-2.1335,0,0,0,0,0,0,0,0,0,0,0,0,0,-2.1493,-2.1511,-2.1504,-2.1456,-2.1451,-2.1464,-2.1464,-2.1463,-2.1379,-2.1376,-2.1374,-2.1371,-2.1333,-2.1334,-2.1335,-2.1392,0,0,-2.1338,-2.1338,0,0,0,0,0,0,0,0,-2.1494,-2.1493,-2.1464,-2.1459,-2.1454,-2.1423,-2.1451,-2.1439,-2.1379,-2.1406,-2.1373,-2.137,-2.1366,-2.1364,-2.1362,-2.139,-2.1388,-2.1338,-2.1338,-2.1339,-2.1339,0,0,0,0,0,0,0,-2.1496,-2.1494,-2.1488,-2.1463,-2.1458,-2.1438,-2.1432,-2.1449,-2.1401,-2.1404,-2.1398,-2.1394,-2.1363,-2.1361,-2.136,-2.1388,-2.1338,-2.1338,-2.1339,-2.1339,-2.1463,-2.1466,0,0,0,0,0,0,-2.1503,-2.1496,-2.149,-2.1487,-2.1468,-2.144,-2.1434,-2.1436,-2.1401,-2.1393,-2.1396,-2.139,-2.1361,-2.136,-2.1359,-2.1424,-2.1339,-2.1339,-2.134,-2.146,-2.1464,-2.1467,0,0,0,0,0,0,-2.1504,-2.1504,-2.1491,-2.149,-2.1487,-2.1442,-2.1446,-2.1436,-2.1435,-2.1395,-2.1386,-2.1403,-2.1359,-2.1358,-2.1385,-2.1421,-2.134,-2.134,-2.1457,-2.1461,-2.1465,-2.1554,0,0,0,0,0,0,-2.1504,-2.1504,-2.1524,-2.1491,-2.1487,-2.1517,-2.1448,-2.1438,-2.1436,-2.1428,-2.1399,-2.1392,-2.1357,-2.1384,-2.1386,-2.1421,-2.1341,-2.1454,-2.1459,-2.1464,-2.1548,-2.1561,-2.1572,0,0,0,0,0,-2.1505,-2.1551,-2.1526,-2.1525,-2.1511,-2.1519,-2.1517,-2.1475,-2.144,-2.146,-2.1435,-2.1393,-2.1418,-2.1387,-2.1389,-2.1425,-2.1451,-2.1457,-2.1464,-2.1542,-2.1558,-2.1572,0,0,0,0,0,0,-2.159,-2.1545,-2.1517,-2.1553,-2.1541,-2.1505,-2.1529,-2.1493,-2.149,-2.1483,-2.1432,-2.1426,-2.1461,-2.1445,-2.1413,-2.1479,-2.1428,-2.1435,-2.1487,-2.1502,-2.1514,-2.1516,-2.1342,0,0,0,0,0,-2.1613,-2.1622,-2.1583,-2.1619,-2.1614,-2.1573,-2.1575,-2.1544,-2.1529,-2.1523,-2.15,-2.1488,-2.1493,-2.1497,-2.1499,-2.1546,-2.1539,-2.1572,-2.1584,-2.1594,-2.16,-2.1625,-2.164,-2.1487,-2.1487,-2.1487,0,0,-2.166,-2.1637,-2.1646,-2.1636,-2.1622,-2.1634,-2.1569,-2.1584,-2.1592,-2.1526,-2.1549,-2.1533,-2.1516,-2.1554,-2.1569,-2.1542,-2.1641,-2.1602,-2.1611,-2.1611,-2.1633,-2.1648,-2.1661,-2.1492,-2.1491,-2.149,0,0,-2.1752,-2.1735,-2.1764,-2.1752,-2.1733,-2.1706,-2.1713,-2.1683,-2.1669,-2.1692,-2.1643,-2.1654,-2.1663,-2.1653,-2.165,-2.1742,-2.1704,-2.1745,-2.1808,-2.1833,-2.1845,-2.1855,-2.1889,-2.1901,-2.1751,-2.1752,-2.1752,0,-2.1813,-2.1828,-2.1783,-2.1802,-2.1799,-2.174,-2.177,-2.1761,-2.1744,-2.1744,-2.1714,-2.1726,-2.1711,-2.1746,-2.1769,-2.1768,-2.1776,-2.1747,-2.1847,-2.1857,-2.1866,-2.1897,-2.191,-2.1757,-2.1756,-2.1756,-2.1755,0,-2.1904,-2.1916,-2.1942,-2.1926,-2.1927,-2.1951,-2.1912,-2.1918,-2.1889,-2.1866,-2.1892,-2.1871,-2.1869,-2.1876,-2.1847,-2.1908,-2.1892,-2.1856,-2.1803,-2.1886,-2.1915,-2.1926,-2.1764,-2.1762,-2.1761,-2.1759,0,0,-2.2045,-2.2007,-2.2017,-2.2011,-2.1986,-2.1995,-2.2018,-2.2016,-2.2023,-2.2014,-2.2032,-2.2043,-2.201,-2.2006,-2.1976,-2.1999,-2.2074,-2.196,-2.1959,-2.1981,-2.2142,-2.2168,-2.2183,-2.205,-2.2052,-2.2054,-2.2143,0,-2.2131,-2.2165,-2.2128,-2.2171,-2.2182,-2.2128,-2.2148,-2.2137,-2.2117,-2.2124,-2.2102,-2.2111,-2.2066,-2.2064,-2.2084,-2.2061,-2.2106,-2.2054,-2.2067,-2.2068,-2.2071,-2.2198,-2.2225,-2.231,-2.2154,-2.2156,-2.2157,0,-2.2234,-2.2231,-2.2275,-2.225,-2.2253,-2.2272,-2.2268,-2.2276,-2.2263,-2.2247,-2.2244,-2.2209,-2.2231,-2.2181,-2.2212,-2.2177,-2.2181,-2.2171,-2.2174,-2.2172,-2.2116,-2.2199,-2.2336,-2.2349,-2.2174,-2.2173,-2.2172,0,-2.2332,-2.2339,-2.2367,-2.2363,-2.2334,-2.2349,-2.2338,-2.2322,-2.2324,-2.2322,-2.2323,-2.2324,-2.2324,-2.2326,-2.2293,-2.2259,-2.2328,-2.2275,-2.2316,-2.2317,-2.2331,-2.233,-2.247,-2.2336,-2.2335,-2.2335,-2.2335,0,-2.2431,-2.246,-2.2411,-2.2427,-2.246,-2.2418,-2.2451,-2.2435,-2.2422,-2.2436,-2.239,-2.2405,-2.236,-2.237,-2.2345,-2.2375,-2.2375,-2.2364,-2.2356,-2.2367,-2.2368,-2.2367,-2.236,-2.2338,-2.2338,-2.2337,-2.2337,0,-2.2545,-2.2513,-2.2539,-2.2511,-2.2505,-2.253,-2.2507,-2.2522,-2.25,-2.2519,-2.2521,-2.2487,-2.2497,-2.2465,-2.2469,-2.2452,-2.2496,-2.2479,-2.25,-2.2495,-2.2537,-2.2534,-2.268,-2.2698,-2.2553,-2.2555,-2.2556,0,-2.2609,-2.263,-2.2605,-2.2611,-2.2603,-2.2613,-2.2615,-2.2576,-2.258,-2.2569,-2.2586,-2.2593,-2.2595,-2.2615,-2.2591,-2.2595,-2.2578,-2.2629,-2.2578,-2.2589,-2.2578,-2.2577,-2.2579,-2.2639,-2.2641,-2.2643,-2.2644,0,-2.2727,-2.2711,-2.2715,-2.2715,-2.2719,-2.2717,-2.2712,-2.272,-2.2678,-2.2686,-2.2695,-2.2698,-2.2704,-2.2711,-2.2711,-2.2701,-2.2666,-2.2661,-2.267,-2.2681,-2.2692,-2.2686,-2.2528,-2.2657,-2.2656,-2.2655,-2.2654,-2.2653,-2.2817,-2.2834,-2.282,-2.2827,-2.282,-2.2817,-2.283,-2.2811,-2.2818,-2.2819,-2.2796,-2.2811,-2.28,-2.2796,-2.2791,-2.2803,-2.2779,-2.2793,-2.2796,-2.28,-2.2807,-2.2691,-2.2803,-2.2802,-2.2802,-2.2802,-2.2801,0,-2.2932,-2.2921,-2.2928,-2.2923,-2.2929,-2.2897,-2.289,-2.2898,-2.2912,-2.2904,-2.2908,-2.2921,-2.2929,-2.2907,-2.2912,-2.2927,-2.2911,-2.2929,-2.2927,-2.2926,-2.2828,-2.2819,-2.2942,-2.2942,-2.2942,-2.2942,-2.2942,-2.2942,-2.2993,-2.302,-2.3003,-2.3027,-2.3016,-2.3029,-2.3029,-2.3027,-2.3021,-2.3037,-2.3043,-2.3029,-2.3017,-2.3021,-2.3027,-2.3021,-2.3025,-2.3049,-2.3037,-2.2946,-2.2932,-2.2919,-2.291,-2.305,-2.305,-2.3133,-2.3134,-2.3134]},{"header":{"parameterUnit":"m.s-1","parameterCategory":1,"la1":30.2991,"la2":30.254,"lo1":-89.0895,"lo2":-89.0444,"dy":0.0017,"dx":0.0017,"nx":28,"ny":28,"refTime":"2024-03-10T21:00:00:Z","depth":0,"parameterNumber":3,"parameterNumberName":"V-component_of_WINDS"},"data":[0,0,0,0,0,0,0,0,0,0,0,0,0,0,0,0,0,0,0,0,0,0,0,0,0,0,0,0,0,0,0,0,0,0,0,0,0,0,0,0,0,0,0,0,0,0,0,0,0,0,0,0,0,0,0,0,0,0,2.6432,2.6433,0,2.6447,2.6447,2.6447,2.6508,2.651,2.6511,2.6512,2.6522,2.6521,2.652,0,0,0,0,0,0,0,0,0,0,0,0,0,2.6453,2.6452,2.6432,2.6433,2.6433,2.6447,2.6447,2.6447,2.6508,2.651,2.6511,2.6513,2.6522,2.6521,2.652,0,0,0,0,0,0,0,0,0,0,0,0,0,2.6453,2.6452,2.6432,2.6465,2.6468,2.6447,2.6447,2.6448,2.6508,2.651,2.6512,2.6514,2.6523,2.6521,2.6519,2.6467,0,0,2.6515,2.6514,0,0,0,0,0,0,0,0,2.6453,2.6452,2.646,2.6463,2.6466,2.6478,2.6458,2.6454,2.6507,2.6492,2.6512,2.6515,2.6505,2.6505,2.6503,2.6467,2.6468,2.6514,2.6513,2.6513,2.6512,0,0,0,0,0,0,0,2.6453,2.6452,2.6438,2.646,2.6464,2.6477,2.648,2.6458,2.6486,2.6494,2.6498,2.6499,2.6507,2.6504,2.6504,2.6468,2.6514,2.6513,2.6512,2.6511,2.6391,2.6388,0,0,0,0,0,0,2.6449,2.6452,2.6438,2.6439,2.6465,2.6475,2.6478,2.6472,2.6487,2.6491,2.6498,2.6502,2.6506,2.6506,2.6504,2.6444,2.6513,2.6511,2.651,2.6393,2.639,2.6388,0,0,0,0,0,0,2.6449,2.6447,2.6437,2.6446,2.6446,2.6473,2.6465,2.6471,2.6469,2.649,2.6495,2.649,2.6508,2.6507,2.6476,2.6445,2.6511,2.6509,2.6395,2.6392,2.6389,2.6323,0,0,0,0,0,0,2.6449,2.6447,2.6428,2.6446,2.6445,2.641,2.6464,2.647,2.6466,2.6472,2.6484,2.6488,2.6509,2.6478,2.6475,2.6444,2.6508,2.6398,2.6394,2.639,2.6328,2.6318,2.6309,0,0,0,0,0,2.645,2.6407,2.6427,2.6425,2.6423,2.6408,2.6408,2.6435,2.6463,2.6444,2.6458,2.6487,2.645,2.6475,2.6471,2.644,2.64,2.6395,2.639,2.6332,2.632,2.6309,0,0,0,0,0,0,2.6383,2.641,2.6432,2.6394,2.6399,2.6418,2.6395,2.6421,2.6416,2.6422,2.6454,2.6456,2.6421,2.6428,2.6455,2.639,2.643,2.6424,2.6387,2.6375,2.6366,2.6365,2.6507,0,0,0,0,0,2.6365,2.6352,2.6376,2.634,2.6341,2.6367,2.6362,2.6383,2.6388,2.639,2.6402,2.6404,2.6393,2.6385,2.6375,2.633,2.6333,2.6306,2.6297,2.6289,2.6283,2.6259,2.6248,2.6371,2.6371,2.6371,0,0,2.6325,2.6338,2.6328,2.6327,2.6333,2.6318,2.6368,2.635,2.6339,2.6386,2.6359,2.6368,2.6373,2.6335,2.6318,2.6339,2.625,2.6282,2.6276,2.6274,2.6253,2.6241,2.6231,2.6368,2.6368,2.6369,0,0,2.6245,2.6254,2.6226,2.6231,2.624,2.6258,2.6251,2.6268,2.6276,2.625,2.6285,2.6272,2.6252,2.6254,2.6253,2.6176,2.6202,2.6172,2.6121,2.6098,2.6088,2.608,2.6052,2.6042,2.6166,2.6166,2.6165,0,2.6194,2.6174,2.6207,2.6187,2.6185,2.623,2.6201,2.6204,2.6209,2.6206,2.623,2.6207,2.6213,2.6176,2.6158,2.6155,2.6148,2.617,2.6087,2.6079,2.6072,2.6045,2.6035,2.6162,2.6162,2.6163,2.6163,0,2.6111,2.6096,2.6072,2.6078,2.6074,2.6049,2.6077,2.6069,2.6091,2.6106,2.6079,2.6088,2.6082,2.6075,2.6095,2.6042,2.6054,2.6082,2.6122,2.6056,2.6031,2.6022,2.6156,2.6158,2.6159,2.616,0,0,2.5987,2.6014,2.6004,2.6008,2.6022,2.6011,2.5988,2.5984,2.5976,2.5978,2.596,2.5943,2.5969,2.5967,2.5988,2.5968,2.5906,2.5999,2.5999,2.5981,2.5847,2.5826,2.5814,2.5925,2.5923,2.5922,2.5847,0,2.5911,2.5876,2.5905,2.5863,2.585,2.5894,2.5874,2.588,2.5894,2.5884,2.5899,2.5886,2.5922,2.5922,2.5904,2.5918,2.588,2.5924,2.5906,2.5905,2.5903,2.5801,2.5778,2.5707,2.5838,2.5836,2.5835,0,2.5817,2.5817,2.5775,2.5793,2.5788,2.577,2.577,2.576,2.5768,2.5779,2.5778,2.5805,2.5783,2.5824,2.5794,2.5823,2.5818,2.5824,2.5822,2.582,2.5865,2.5796,2.5685,2.5674,2.582,2.5822,2.5823,0,2.5731,2.572,2.5694,2.5696,2.5716,2.5702,2.571,2.572,2.5716,2.5715,2.5713,2.5709,2.5706,2.5701,2.5726,2.5754,2.5692,2.5735,2.57,2.57,2.5684,2.5685,2.557,2.5682,2.5683,2.5683,2.5683,0,2.5642,2.5614,2.5656,2.5639,2.5609,2.5643,2.5612,2.5624,2.5633,2.5619,2.5656,2.5641,2.5675,2.5664,2.5683,2.5655,2.5653,2.5661,2.5667,2.5658,2.5657,2.5654,2.5659,2.568,2.5681,2.5681,2.5682,0,2.554,2.5567,2.5541,2.5564,2.5569,2.5545,2.5564,2.5549,2.5566,2.5548,2.5545,2.5572,2.5561,2.5586,2.5577,2.559,2.555,2.5564,2.5548,2.5552,2.5515,2.5518,2.5394,2.5379,2.5501,2.55,2.5499,0,2.5481,2.5461,2.5482,2.5477,2.5483,2.5472,2.547,2.5502,2.5497,2.5505,2.5489,2.5482,2.5477,2.5457,2.5475,2.5469,2.5482,2.5439,2.5481,2.5473,2.5481,2.5481,2.5479,2.543,2.5428,2.5427,2.5426,0,2.5374,2.5389,2.5384,2.5384,2.538,2.5381,2.5384,2.5377,2.5412,2.5404,2.5395,2.5391,2.5384,2.5376,2.5374,2.5381,2.5408,2.5413,2.5404,2.5394,2.5386,2.539,2.5524,2.5415,2.5416,2.5417,2.5418,2.5418,2.5292,2.5276,2.5289,2.5282,2.5289,2.5292,2.5279,2.5296,2.5289,2.5287,2.5307,2.5292,2.5301,2.5302,2.5306,2.5295,2.5314,2.5302,2.5298,2.5295,2.5289,2.5389,2.5295,2.5295,2.5295,2.5295,2.5296,0,2.5186,2.5197,2.5191,2.5196,2.519,2.522,2.5225,2.5218,2.5206,2.5212,2.5208,2.5197,2.519,2.5207,2.5202,2.519,2.5202,2.5187,2.5188,2.5189,2.5272,2.528,2.5177,2.5177,2.5177,2.5177,2.5177,2.5177,2.5131,2.5106,2.5122,2.5101,2.5112,2.51,2.5101,2.5103,2.5109,2.5095,2.509,2.5102,2.5113,2.511,2.5104,2.5109,2.5105,2.5085,2.5095,2.5172,2.5183,2.5194,2.5202,2.5085,2.5084,2.5013,2.5013,2.5012]}]]